Regional Weather Roundup
Issued by NWS

Home | Current Version | Previous Version | Text Only | Print | Product List | Glossary On
Versions: 1 2 3 4 5 6 7 8 9 10 11 12 13 14 15 16 17 18 19 20 21 22 23 24 25 26 27 28 29 30 31 32 33 34 35 36 37 38 39 40 41 42 43 44 45 46 47 48 49 50
000
ASUS43 KLSX 270659
RWRMO

WEATHER SUMMARY FOR MISSOURI
NATIONAL WEATHER SERVICE SPRINGFIELD MO
100 AM CST THU NOV 27 2014

NOTE: "FAIR" INDICATES FEW OR NO CLOUDS BELOW 12,000 FEET WITH NO
       SIGNIFICANT WEATHER AND/OR OBSTRUCTIONS TO VISIBILITY.
       CURRENT SKY AND/OR WEATHER CONDITIONS ARE NOT AVAILABLE FOR
       CHILLICOTHE AND FARMINGTON.

MOZ001>031-035>038-043-044-053-054-270800-
...NORTHERN AND WESTERN MISSOURI...

CITY           SKY/WX    TMP DP  RH WIND       PRES   REMARKS
KANSAS CTY INT CLOUDY    27  21  78 NW12      30.43R WCI  17
KANSAS C DTWN  CLOUDY    29  21  72 NW10      30.44R WCI  20
LEE`S SUMMIT   CLOUDY    28  21  75 NW12      30.42R WCI  18
ST JOSEPH      CLOUDY    27  21  78 N13       30.46R WCI  16
CHILLICOTHE      N/A     28  22  78 NW7       30.41R WCI  21
KIRKSVILLE     CLOUDY    29  27  92 NW6       30.35R FOG     WCI  23

$$
MOZ066>068-077>081-088>096-101>105-270800-
...SOUTHWEST MISSOURI...

CITY           SKY/WX    TMP DP  RH WIND       PRES   REMARKS
SPRINGFIELD    CLOUDY    31  24  75 NW16      30.36R WCI  20
JOPLIN         MOCLDY    29  22  75 NW13      30.43R WCI  19

$$
MOZ032>034-039>042-045>050-055>058-069>072-270800-
...CENTRAL MISSOURI...

CITY           SKY/WX    TMP DP  RH WIND       PRES   REMARKS
COLUMBIA       CLOUDY    33  29  85 N15       30.32R WCI  23
JEFFERSON CITY CLOUDY    35  29  78 NW15      30.33R WCI  25
ROLLA          CLOUDY    31  29  92 W15G22    30.26R FOG     WCI  20
SEDALIA        CLOUDY    31  26  82 NW13      30.38R WCI  21
OSAGE BEACH    CLOUDY    32  27  80 NW8G17    30.34R WCI  25

$$
MOZ051-052-059>065-270800-
...EAST CENTRAL MISSOURI...

CITY           SKY/WX    TMP DP  RH WIND       PRES   REMARKS
ST LOUIS INTL  LGT SNOW  32  28  85 N16       30.26R FOG     WCI  21
SPIRIT OF STL  CLOUDY    32  29  88 N12       30.27R WCI  23
ST CHARLES     CLOUDY    31  27  85 N9        30.28R WCI  23

$$
MOZ072>076-082>087-097>100-106>115-270800-
...SOUTH CENTRAL AND SOUTHEAST MISSOURI...

CITY           SKY/WX    TMP DP  RH WIND       PRES   REMARKS
CAPE GIRARDEAU CLOUDY    37  31  78 NW17      30.19R WCI  27
FARMINGTON     CLOUDY    34  28  80 W15G21    30.21R WCI  24
POPLAR BLUFF   CLOUDY    38  29  70 NW17G26   30.22R WCI  28
WEST PLAINS    CLOUDY    33  25  72 NW14G24   30.27R WCI  23

$$



USA.gov is the U.S. government's official web portal to all federal, state and local government web resources and services.